This is the latest recevied weather packets stored in our database for station/object K1RFS. If no packets are shown the sender has not sent any weather packets the latest 10 day(s).
| Time | Temp. | Humidity | Pressure | Rain* | Wind** | Luminosity | Snow |
|---|---|---|---|---|---|---|---|
| 1788029769 | 19.44° C | 71% | 1006.1 hPa | 0 mm | - | 413 W/m² | - |
| 1788029464 | 19.44° C | 79% | 1006.2 hPa | 0 mm | - | 349 W/m² | - |
| 1788029163 | 18.89° C | 79% | 1006.3 hPa | 0 mm | - | 124 W/m² | - |
| 1788028862 | 18.33° C | 84% | 1006.3 hPa | 0 mm | - | 580 W/m² | - |
| 1788028557 | 17.22° C | 88% | 1006.4 hPa | 0 mm | - | 591 W/m² | - |
| 1788028253 | 17.22° C | 88% | 1006.5 hPa | 0 mm | - | 624 W/m² | - |
| 1788027949 | 16.67° C | 91% | 1006.5 hPa | 0 mm | - | 650 W/m² | - |
| 1788027649 | 16.11° C | 91% | 1006.8 hPa | 0 mm | - | 459 W/m² | - |
| 1788027343 | 16.11° C | 92% | 1006.6 hPa | 0 mm | - | 178 W/m² | - |
| 1788027037 | 15.56° C | 92% | 1006.8 hPa | 0 mm | - | 133 W/m² | - |
| 1788026737 | 15.56° C | 93% | 1006.9 hPa | 0 mm | - | 77 W/m² | - |
| 1788026434 | 15.56° C | 94% | 1006.9 hPa | 0 mm | - | 90 W/m² | - |
| 1788026127 | 15.56° C | 94% | 1007 hPa | 0 mm | - | 106 W/m² | - |
| 1788025826 | 16.11° C | 95% | 1007 hPa | 0 mm | - | 124 W/m² | - |
| 1788025526 | 15.56° C | 95% | 1007 hPa | 0 mm | - | 197 W/m² | - |
| 1788025221 | 15.56° C | 95% | 1007.3 hPa | 0 mm | - | 136 W/m² | - |
| 1788024916 | 15.56° C | 95% | 1007.1 hPa | 0 mm | - | 148 W/m² | - |
| 1788024612 | 15.56° C | 95% | 1007 hPa | 1.27 mm | - | 143 W/m² | - |
| 1788024306 | 15.56° C | 94% | 1007.1 hPa | 29.97 mm | - | 196 W/m² | - |
| 1788024002 | 15° C | 93% | 1006.9 hPa | 60.71 mm | - | 126 W/m² | - |
| 1788023697 | 15° C | 91% | 1006.9 hPa | 49.78 mm | - | 42 W/m² | - |
| 1788023393 | 15.56° C | 88% | 1007.7 hPa | 10.16 mm | - | 7 W/m² | - |
| 1788023092 | 16.67° C | 86% | 1006.2 hPa | 0 mm | - | 5 W/m² | - |
| 1788022791 | 17.78° C | 84% | 1005.2 hPa | 0 mm | - | 12 W/m² | - |
| 1788022490 | 17.78° C | 84% | 1005.6 hPa | 0 mm | - | 18 W/m² | - |
* Rain latest hour (hover to see other rain measurements)
** Current wind speed in m/s (hover to see current wind gust speed)